Voltar ao catálogo

STARLINK-30827

AtivoComunicaçõesVLEO
NORAD 58195·PAYLOAD·🇺🇸 United States

Lançado Oct 30, 2023 de Cape Canaveral Space Force Station

Loading…

Próximas Passagens (próximas 24 horas)

TLE

AtualizadoSource: CelesTrak SupGP

Época: Sep 14, 2026, 21:34 UTC

1 58195C 23167W   26257.89909722 -.00010744  00000+0 -38921-3 0  2575
2 58195  42.9994 154.4603 0001216 265.1874 205.6629 15.27577863    15

Acompanhe STARLINK-30827 em tempo real com AllMySat

Download on the App Store